Weather History for Las Cruces, NM

Change the Weather History Date:

Friday, December 6, 2013

  Actual Average Record
Temperature  
Mean Temperature 38 °F -  
Max Temperature 48 °F 54 °F 72 °F (2012)
Min Temperature 27 °F 32 °F 5 °F (2011)
Degree Days  
Heating Degree Days 28    
Moisture  
Dew Point 19 °F    
Average Humidity 54    
Maximum Humidity 84    
Minimum Humidity 21    
Precipitation  
Precipitation 0.00 in - - ()
Sea Level Pressure  
Sea Level Pressure 30.09 in    
Wind  
Wind Speed 7 mph (WSW)    
Max Wind Speed 15 mph    
Max Gust Speed 18 mph    
Visibility 10 miles    
Events      
Averages and records for this station are not official NWS values.
T = Trace of Precipitation, MM = Missing Value Source: NWS Daily Summary

Daily Weather History Graph

Daily Weather History Graph

Search for Another Location

Airport:

Trip Planner

Search our weather history database for the weather conditions in past years. The results will help you decide how hot, cold, wet, or windy it might be!

Date:

Astronomy

Dec. 06, 2013 Rise Set
Actual Time 6:55 AM MST 5:02 PM MST
Civil Twilight 6:28 AM MST 5:29 PM MST
Nautical Twilight 5:57 AM MST 5:59 PM MST
Astronomical Twilight 5:28 AM MST 6:29 PM MST
Moon 10:10 AM MST (12/6) 9:28 PM MST (12/6)
Length of Visible Light 11h 01m
Length of Day
10h 07m
Waxing Crescent, 20% of the Moon is Illuminated
Dec 6
Waxing Crescent
Dec 9
First Quarter
Dec 17
Full
Dec 25
Last Quarter
Jan 1
New

Hourly Weather History & Observations

Time (MST) Temp. Windchill Dew Point Humidity Pressure Visibility Wind Dir Wind Speed Gust Speed Precip Events Conditions
12:15 AM 33.8 °F 25.8 °F 29.1 °F 83% 29.99 in 10.0 mi West 10.4 mph - N/A   Clear
12:35 AM 33.8 °F 24.8 °F 28.8 °F 82% 29.99 in 10.0 mi West 12.7 mph - N/A   Clear
12:55 AM 34.0 °F 27.2 °F 28.8 °F 81% 29.99 in 10.0 mi West 8.1 mph - N/A   Clear
1:15 AM 33.6 °F 26.8 °F 28.2 °F 81% 29.99 in 10.0 mi West 8.1 mph - N/A   Clear
1:35 AM 34.7 °F 31.8 °F 28.4 °F 78% 30.00 in 10.0 mi West 3.5 mph - N/A   Clear
1:55 AM 34.0 °F - 28.0 °F 79% 30.01 in 10.0 mi Calm Calm - N/A   Clear
2:15 AM 32.4 °F - 27.5 °F 82% 30.01 in 10.0 mi Calm Calm - N/A   Clear
2:35 AM 32.0 °F 23.6 °F 27.7 °F 84% 30.01 in 10.0 mi West 10.4 mph - N/A   Scattered Clouds
2:55 AM 35.6 °F 28.6 °F 29.3 °F 78% 30.03 in 10.0 mi West 9.2 mph - N/A   Mostly Cloudy
3:15 AM 35.8 °F 29.4 °F 29.1 °F 77% 30.04 in 10.0 mi West 8.1 mph - N/A   Overcast
3:35 AM 34.9 °F 26.6 °F 28.8 °F 78% 30.04 in 10.0 mi West 11.5 mph - N/A   Scattered Clouds
3:55 AM 34.2 °F 24.8 °F 28.2 °F 79% 30.04 in 10.0 mi West 13.8 mph - N/A   Scattered Clouds
4:15 AM 33.8 °F 23.9 °F 27.5 °F 78% 30.03 in 10.0 mi West 15.0 mph - N/A   Clear
4:35 AM 33.8 °F 24.3 °F 26.2 °F 74% 30.04 in 10.0 mi West 13.8 mph - N/A   Clear
4:55 AM 33.4 °F 24.8 °F 25.9 °F 74% 30.04 in 10.0 mi West 11.5 mph - N/A   Clear
5:15 AM 32.7 °F 29.6 °F 25.7 °F 75% 30.07 in 10.0 mi NW 3.5 mph - N/A   Clear
5:35 AM 30.4 °F - 24.6 °F 79% 30.08 in 10.0 mi Calm Calm - N/A   Clear
5:55 AM 32.5 °F - 25.5 °F 75% 30.08 in 10.0 mi Calm Calm - N/A   Scattered Clouds
6:15 AM 31.3 °F 22.7 °F 23.9 °F 74% 30.08 in 10.0 mi West 10.4 mph - N/A   Scattered Clouds
6:35 AM 29.8 °F 23.0 °F 23.7 °F 78% 30.08 in 10.0 mi West 6.9 mph - N/A   Clear
6:55 AM 28.0 °F 18.6 °F 23.5 °F 83% 30.09 in 10.0 mi West 10.4 mph - N/A   Clear
7:15 AM 30.0 °F 23.2 °F 24.4 °F 80% 30.09 in 10.0 mi West 6.9 mph - N/A   Clear
7:35 AM 30.2 °F 26.7 °F 24.4 °F 79% 30.11 in 10.0 mi SE 3.5 mph - N/A   Clear
7:55 AM 31.1 °F 24.5 °F 25.0 °F 78% 30.11 in 10.0 mi WSW 6.9 mph - N/A   Clear
8:15 AM 32.4 °F 26.0 °F 25.5 °F 76% 30.12 in 10.0 mi WSW 6.9 mph - N/A   Clear
8:35 AM 34.5 °F 27.9 °F 25.0 °F 68% 30.13 in 10.0 mi WSW 8.1 mph - N/A   Clear
8:55 AM 35.6 °F 28.6 °F 24.3 °F 63% 30.13 in 10.0 mi WSW 9.2 mph - N/A   Clear
9:20 AM 37.4 °F 31.4 °F 23.0 °F 56% 30.15 in 10.0 mi WSW 8.1 mph - N/A   Clear
9:35 AM 38.3 °F 31.4 °F 22.6 °F 53% 30.14 in 10.0 mi West 10.4 mph - N/A   Clear
9:55 AM 39.9 °F 32.9 °F 22.8 °F 50% 30.15 in 10.0 mi West 11.5 mph - N/A   Clear
10:15 AM 41.2 °F 33.7 °F 21.9 °F 46% 30.15 in 10.0 mi West 13.8 mph 17.3 mph N/A   Clear
10:35 AM 41.7 °F 35.6 °F 21.0 °F 44% 30.15 in 10.0 mi West 10.4 mph 16.1 mph N/A   Clear
10:55 AM 42.1 °F 36.1 °F 20.8 °F 43% 30.15 in 10.0 mi WSW 10.4 mph 17.3 mph N/A   Clear
11:15 AM 42.8 °F 35.8 °F 21.0 °F 42% 30.14 in 10.0 mi WSW 13.8 mph - N/A   Clear
11:35 AM 44.1 °F 38.6 °F 20.3 °F 39% 30.14 in 10.0 mi West 10.4 mph - N/A   Clear
11:55 AM 44.2 °F 40.3 °F 19.2 °F 37% 30.13 in 10.0 mi West 6.9 mph - N/A   Clear
12:15 PM 45.3 °F 41.1 °F 17.2 °F 33% 30.12 in 10.0 mi West 8.1 mph - N/A   Clear
12:35 PM 45.1 °F 41.4 °F 16.9 °F 32% 30.11 in 10.0 mi WSW 6.9 mph 16.1 mph N/A   Clear
12:55 PM 46.2 °F 42.2 °F 15.8 °F 30% 30.09 in 10.0 mi WSW 8.1 mph - N/A   Clear
1:15 PM 47.3 °F - 15.1 °F 28% 30.08 in 10.0 mi West 9.2 mph 18.4 mph N/A   Clear
1:35 PM 46.6 °F - 14.9 °F 28% 30.08 in 10.0 mi WSW 5.8 mph 16.1 mph N/A   Clear
1:55 PM 47.1 °F - 14.5 °F 27% 30.08 in 10.0 mi WSW 5.8 mph - N/A   Clear
2:15 PM 46.9 °F - 15.3 °F 28% 30.08 in 10.0 mi West 9.2 mph - N/A   Clear
2:35 PM 47.7 °F - 14.5 °F 27% 30.08 in 10.0 mi West 6.9 mph - N/A   Clear
2:55 PM 48.0 °F - 11.3 °F 23% 30.08 in 10.0 mi WSW 4.6 mph - N/A   Clear
3:15 PM 47.8 °F - 11.3 °F 23% 30.08 in 10.0 mi SW 6.9 mph - N/A   Clear
3:35 PM 47.8 °F - 10.0 °F 22% 30.08 in 10.0 mi West 6.9 mph - N/A   Clear
3:55 PM 47.5 °F - 8.6 °F 21% 30.08 in 10.0 mi SW 4.6 mph - N/A   Clear
4:15 PM 47.3 °F - 10.2 °F 22% 30.08 in 10.0 mi SW 3.5 mph - N/A   Clear
4:35 PM 46.6 °F - 11.3 °F 24% 30.08 in 10.0 mi SW 4.6 mph - N/A   Clear
4:55 PM 45.1 °F 43.7 °F 11.3 °F 25% 30.09 in 10.0 mi SW 3.5 mph - N/A   Clear
5:15 PM 42.3 °F - 11.3 °F 28% 30.09 in 10.0 mi Calm Calm - N/A   Clear
5:35 PM 38.7 °F - 10.8 °F 32% 30.09 in 10.0 mi Calm Calm - N/A   Clear
5:55 PM 37.2 °F - 11.3 °F 34% 30.09 in 10.0 mi Calm Calm - N/A   Clear
6:15 PM 34.7 °F - 9.5 °F 35% 30.09 in 10.0 mi Calm Calm - N/A   Clear
6:35 PM 32.9 °F - 9.7 °F 38% 30.11 in 10.0 mi Calm Calm - N/A   Clear
6:55 PM 31.6 °F 28.3 °F 8.4 °F 38% 30.11 in 10.0 mi South 3.5 mph - N/A   Clear
7:15 PM 31.6 °F - 8.4 °F 38% 30.11 in 10.0 mi Calm Calm - N/A   Clear
7:35 PM 31.3 °F - 9.7 °F 41% 30.11 in 10.0 mi Calm Calm - N/A   Clear
7:55 PM 31.8 °F 28.5 °F 9.9 °F 40% 30.12 in 10.0 mi SW 3.5 mph - N/A   Clear
8:15 PM 29.5 °F 25.9 °F 9.7 °F 44% 30.12 in 10.0 mi South 3.5 mph - N/A   Clear
8:35 PM 28.9 °F - 9.7 °F 45% 30.12 in 10.0 mi Calm Calm - N/A   Clear
8:55 PM 29.8 °F - 10.4 °F 44% 30.12 in 10.0 mi Calm Calm - N/A   Clear
9:15 PM 28.8 °F - 10.2 °F 46% 30.12 in 10.0 mi Calm Calm - N/A   Clear
9:35 PM 29.1 °F - 10.4 °F 46% 30.12 in 10.0 mi Calm Calm - N/A   Clear
9:55 PM 27.5 °F 23.6 °F 10.0 °F 48% 30.12 in 10.0 mi SSW 3.5 mph - N/A   Clear
10:15 PM 32.5 °F 27.1 °F 17.1 °F 53% 30.12 in 10.0 mi ESE 5.8 mph - N/A   Clear
10:35 PM 33.4 °F 28.1 °F 20.3 °F 59% 30.12 in 10.0 mi SE 5.8 mph - N/A   Clear
10:55 PM 34.3 °F 28.4 °F 26.1 °F 72% 30.12 in 10.0 mi SSE 6.9 mph - N/A   Clear
11:15 PM 33.6 °F 27.5 °F 27.3 °F 78% 30.12 in 10.0 mi SSE 6.9 mph - N/A   Clear
11:35 PM 33.4 °F 29.1 °F 27.9 °F 80% 30.11 in 10.0 mi SSE 4.6 mph - N/A   Clear
11:55 PM 32.9 °F 27.5 °F 28.0 °F 82% 30.11 in 10.0 mi SSE 5.8 mph - N/A   Clear